contact:dominique.lefevre@mio.osupytheas.fr, maurice.libes@osupytheas.fr, didier.mallarino@osupytheas.fr
Project:EMSO http://www.emso-fr.org/EMSO-France
Depth: 2436.0 m
Title:EMSO Ligure Ouest : Data MII capteur CSTAR
DateTime,Latitude,Longitude,Instrument_Serial,Reference_Counts,Signal_Counts,Corrected_Signal_raw_counts,Calculated_Beam_c_inverse_meters,Internal_thermistor_counts
DateTime,Latitude,Longitude,Instrument_Serial,Reference_Counts,Signal_Counts,Corrected_Signal_raw_counts,Calculated_Beam_c_inverse_meters,Internal_thermistor_counts
2020-02-18T00:01:42,42.805,6.029,CST-1368DR,6762,9477,15229,0.100,551
2020-02-18T00:04:44,42.805,6.029,CST-1368DR,6762,9478,15231,0.100,551
2020-02-18T00:07:45,42.805,6.029,CST-1368DR,6762,9477,15229,0.100,551
2020-02-18T00:10:47,42.805,6.029,CST-1368DR,6762,9476,15228,0.101,551
2020-02-18T00:13:49,42.805,6.029,CST-1368DR,6762,9475,15227,0.101,551
2020-02-18T00:16:50,42.805,6.029,CST-1368DR,6762,9478,15231,0.100,551
2020-02-18T00:19:52,42.805,6.029,CST-1368DR,6762,9478,15231,0.100,551
2020-02-18T00:22:53,42.805,6.029,CST-1368DR,6762,9477,15230,0.100,551
2020-02-18T00:25:55,42.805,6.029,CST-1368DR,6762,9476,15228,0.101,551
2020-02-18T00:28:57,42.805,6.029,CST-1368DR,6762,9477,15230,0.100,551
2020-02-18T00:31:58,42.805,6.029,CST-1368DR,6762,9477,15229,0.100,550
2020-02-18T00:35:00,42.805,6.029,CST-1368DR,6762,9477,15229,0.100,551
2020-02-18T00:38:02,42.805,6.029,CST-1368DR,6762,9478,15231,0.100,551
2020-02-18T00:41:03,42.805,6.029,CST-1368DR,6762,9478,15231,0.100,551
2020-02-18T00:44:05,42.805,6.029,CST-1368DR,6762,9477,15230,0.100,551
2020-02-18T00:47:06,42.805,6.029,CST-1368DR,6762,9477,15230,0.100,551
2020-02-18T00:50:08,42.805,6.029,CST-1368DR,6762,9477,15230,0.100,551
2020-02-18T00:53:10,42.805,6.029,CST-1368DR,6762,9477,15229,0.100,551
2020-02-18T00:56:11,42.805,6.029,CST-1368DR,6762,9477,15230,0.100,551
2020-02-18T00:59:13,42.805,6.029,CST-1368DR,6762,9477,15230,0.100,551
2020-02-18T01:02:15,42.805,6.029,CST-1368DR,6762,9476,15228,0.101,551
2020-02-18T01:05:16,42.805,6.029,CST-1368DR,6762,9475,15227,0.101,551
2020-02-18T01:08:18,42.805,6.029,CST-1368DR,6762,9477,15229,0.100,551
2020-02-18T01:11:20,42.805,6.029,CST-1368DR,6762,9477,15229,0.100,551
2020-02-18T01:14:21,42.805,6.029,CST-1368DR,6762,9476,15228,0.101,551
2020-02-18T01:17:23,42.805,6.029,CST-1368DR,6762,9477,15230,0.100,550
2020-02-18T01:20:25,42.805,6.029,CST-1368DR,6762,9476,15228,0.101,551
2020-02-18T01:23:26,42.805,6.029,CST-1368DR,6762,9476,15228,0.101,551
2020-02-18T01:26:28,42.805,6.029,CST-1368DR,6762,9476,15227,0.101,551
2020-02-18T01:29:29,42.805,6.029,CST-1368DR,6762,9476,15227,0.101,551
2020-02-18T01:32:31,42.805,6.029,CST-1368DR,6762,9477,15229,0.100,551
2020-02-18T01:35:33,42.805,6.029,CST-1368DR,6762,9477,15230,0.100,551
2020-02-18T01:38:34,42.805,6.029,CST-1368DR,6762,9476,15228,0.101,551
2020-02-18T01:41:36,42.805,6.029,CST-1368DR,6762,9476,15227,0.101,551
2020-02-18T01:44:38,42.805,6.029,CST-1368DR,6762,9475,15227,0.101,551
2020-02-18T01:47:39,42.805,6.029,CST-1368DR,6761,9477,15231,0.100,551
2020-02-18T01:50:41,42.805,6.029,CST-1368DR,6762,9476,15228,0.101,551
2020-02-18T01:53:42,42.805,6.029,CST-1368DR,6762,9476,15228,0.101,551
2020-02-18T01:56:44,42.805,6.029,CST-1368DR,6761,9477,15231,0.100,551
2020-02-18T01:59:46,42.805,6.029,CST-1368DR,6761,9477,15231,0.100,551
2020-02-18T02:02:47,42.805,6.029,CST-1368DR,6761,9477,15231,0.100,551
2020-02-18T02:05:49,42.805,6.029,CST-1368DR,6761,9476,15230,0.100,551
2020-02-18T02:08:51,42.805,6.029,CST-1368DR,6761,9476,15230,0.100,551
2020-02-18T02:11:52,42.805,6.029,CST-1368DR,6761,9477,15231,0.100,551
2020-02-18T02:14:54,42.805,6.029,CST-1368DR,6761,9476,15230,0.100,551
2020-02-18T02:17:56,42.805,6.029,CST-1368DR,6761,9475,15229,0.100,551
2020-02-18T02:20:57,42.805,6.029,CST-1368DR,6761,9476,15230,0.100,551
2020-02-18T02:23:59,42.805,6.029,CST-1368DR,6761,9476,15230,0.100,551
2020-02-18T02:27:01,42.805,6.029,CST-1368DR,6761,9475,15229,0.100,551
2020-02-18T02:30:02,42.805,6.029,CST-1368DR,6761,9477,15231,0.100,551
2020-02-18T02:33:04,42.805,6.029,CST-1368DR,6761,9475,15228,0.101,551
2020-02-18T02:36:05,42.805,6.029,CST-1368DR,6761,9474,15227,0.101,551
2020-02-18T02:39:07,42.805,6.029,CST-1368DR,6761,9477,15232,0.100,551
2020-02-18T02:42:09,42.805,6.029,CST-1368DR,6761,9476,15230,0.100,551
2020-02-18T02:45:10,42.805,6.029,CST-1368DR,6761,9477,15231,0.100,550
2020-02-18T02:48:12,42.805,6.029,CST-1368DR,6761,9477,15231,0.100,551
2020-02-18T02:51:14,42.805,6.029,CST-1368DR,6761,9477,15232,0.100,551
2020-02-18T02:54:15,42.805,6.029,CST-1368DR,6761,9477,15231,0.100,551
2020-02-18T02:57:17,42.805,6.029,CST-1368DR,6761,9477,15231,0.100,551
2020-02-18T03:00:19,42.805,6.029,CST-1368DR,6761,9476,15230,0.100,551
2020-02-18T03:03:20,42.805,6.029,CST-1368DR,6761,9477,15231,0.100,551
2020-02-18T03:06:22,42.805,6.029,CST-1368DR,6761,9477,15232,0.100,551
2020-02-18T03:09:24,42.805,6.029,CST-1368DR,6761,9477,15232,0.100,551
2020-02-18T03:12:25,42.805,6.029,CST-1368DR,6761,9477,15231,0.100,551
2020-02-18T03:15:27,42.805,6.029,CST-1368DR,6761,9476,15229,0.100,551
2020-02-18T03:18:29,42.805,6.029,CST-1368DR,6761,9477,15232,0.100,551
2020-02-18T03:21:30,42.805,6.029,CST-1368DR,6761,9475,15229,0.100,551
2020-02-18T03:24:32,42.805,6.029,CST-1368DR,6761,9477,15231,0.100,551
2020-02-18T03:27:33,42.805,6.029,CST-1368DR,6761,9475,15229,0.100,551
2020-02-18T03:30:35,42.805,6.029,CST-1368DR,6761,9475,15229,0.100,551
2020-02-18T03:33:37,42.805,6.029,CST-1368DR,6761,9477,15232,0.100,551
2020-02-18T03:36:38,42.805,6.029,CST-1368DR,6761,9477,15231,0.100,551
2020-02-18T03:39:40,42.805,6.029,CST-1368DR,6761,9472,15223,0.102,551
2020-02-18T03:42:42,42.805,6.029,CST-1368DR,6761,9477,15231,0.100,551
2020-02-18T03:45:43,42.805,6.029,CST-1368DR,6761,9476,15230,0.100,551
2020-02-18T03:48:45,42.805,6.029,CST-1368DR,6761,9477,15232,0.100,551
2020-02-18T03:51:47,42.805,6.029,CST-1368DR,6761,9477,15232,0.100,551
2020-02-18T03:54:48,42.805,6.029,CST-1368DR,6761,9476,15230,0.100,551
2020-02-18T03:57:50,42.805,6.029,CST-1368DR,6761,9477,15232,0.100,551
2020-02-18T04:00:52,42.805,6.029,CST-1368DR,6761,9477,15231,0.100,551
2020-02-18T04:03:53,42.805,6.029,CST-1368DR,6761,9478,15233,0.099,551
2020-02-18T04:06:55,42.805,6.029,CST-1368DR,6761,9477,15231,0.100,551
2020-02-18T04:09:57,42.805,6.029,CST-1368DR,6761,9478,15233,0.099,551
2020-02-18T04:12:58,42.805,6.029,CST-1368DR,6761,9476,15230,0.100,551
2020-02-18T04:16:00,42.805,6.029,CST-1368DR,6761,9476,15230,0.100,551
2020-02-18T04:19:01,42.805,6.029,CST-1368DR,6761,9477,15231,0.100,551
2020-02-18T04:22:03,42.805,6.029,CST-1368DR,6761,9476,15230,0.100,551
2020-02-18T04:25:05,42.805,6.029,CST-1368DR,6761,9476,15230,0.100,551
2020-02-18T04:28:06,42.805,6.029,CST-1368DR,6761,9478,15233,0.099,550
2020-02-18T04:31:08,42.805,6.029,CST-1368DR,6761,9477,15231,0.100,551
2020-02-18T04:34:10,42.805,6.029,CST-1368DR,6761,9477,15232,0.100,551
2020-02-18T04:37:11,42.805,6.029,CST-1368DR,6761,9476,15229,0.100,551
2020-02-18T04:40:13,42.805,6.029,CST-1368DR,6761,9475,15229,0.100,551
2020-02-18T04:43:15,42.805,6.029,CST-1368DR,6761,9475,15229,0.100,551
2020-02-18T04:46:17,42.805,6.029,CST-1368DR,6761,9477,15231,0.100,551
2020-02-18T04:49:18,42.805,6.029,CST-1368DR,6761,9477,15232,0.100,551
2020-02-18T04:52:20,42.805,6.029,CST-1368DR,6761,9476,15230,0.100,551
2020-02-18T04:55:21,42.805,6.029,CST-1368DR,6761,9477,15232,0.100,551
2020-02-18T04:58:23,42.805,6.029,CST-1368DR,6761,9477,15231,0.100,551
2020-02-18T05:01:25,42.805,6.029,CST-1368DR,6761,9478,15233,0.099,551
2020-02-18T05:04:26,42.805,6.029,CST-1368DR,6761,9473,15225,0.101,551
2020-02-18T05:07:28,42.805,6.029,CST-1368DR,6761,9476,15230,0.100,551
2020-02-18T05:10:30,42.805,6.029,CST-1368DR,6761,9475,15229,0.100,551
2020-02-18T05:13:31,42.805,6.029,CST-1368DR,6761,9475,15229,0.100,551
2020-02-18T05:16:33,42.805,6.029,CST-1368DR,6761,9477,15232,0.100,551
2020-02-18T05:19:35,42.805,6.029,CST-1368DR,6761,9477,15232,0.100,551
2020-02-18T05:22:36,42.805,6.029,CST-1368DR,6761,9476,15230,0.100,551
2020-02-18T05:25:38,42.805,6.029,CST-1368DR,6761,9475,15229,0.100,551
2020-02-18T05:28:39,42.805,6.029,CST-1368DR,6761,9475,15229,0.100,551
2020-02-18T05:31:41,42.805,6.029,CST-1368DR,6761,9475,15229,0.100,551
2020-02-18T05:34:43,42.805,6.029,CST-1368DR,6761,9477,15231,0.100,551
2020-02-18T05:37:44,42.805,6.029,CST-1368DR,6761,9474,15227,0.101,551
2020-02-18T05:40:46,42.805,6.029,CST-1368DR,6761,9476,15230,0.100,551
2020-02-18T05:43:47,42.805,6.029,CST-1368DR,6761,9475,15229,0.100,551
2020-02-18T05:46:49,42.805,6.029,CST-1368DR,6761,9475,15228,0.101,551
2020-02-18T05:49:51,42.805,6.029,CST-1368DR,6761,9475,15228,0.101,551
2020-02-18T05:52:52,42.805,6.029,CST-1368DR,6761,9477,15231,0.100,551
2020-02-18T05:55:54,42.805,6.029,CST-1368DR,6761,9475,15228,0.101,551
2020-02-18T05:58:56,42.805,6.029,CST-1368DR,6761,9475,15229,0.100,551
2020-02-18T06:01:57,42.805,6.029,CST-1368DR,6761,9476,15230,0.100,551
2020-02-18T06:04:59,42.805,6.029,CST-1368DR,6761,9476,15230,0.100,551
2020-02-18T06:08:01,42.805,6.029,CST-1368DR,6761,9475,15228,0.101,551
2020-02-18T06:11:02,42.805,6.029,CST-1368DR,6761,9475,15228,0.101,551
2020-02-18T06:14:04,42.805,6.029,CST-1368DR,6761,9474,15227,0.101,551
2020-02-18T06:17:05,42.805,6.029,CST-1368DR,6761,9475,15229,0.100,551
2020-02-18T06:20:07,42.805,6.029,CST-1368DR,6760,9475,15231,0.100,551
2020-02-18T06:23:09,42.805,6.029,CST-1368DR,6760,9475,15230,0.100,551
2020-02-18T06:26:11,42.805,6.029,CST-1368DR,6760,9476,15232,0.100,551
2020-02-18T06:29:12,42.805,6.029,CST-1368DR,6760,9476,15232,0.100,551
2020-02-18T06:32:14,42.805,6.029,CST-1368DR,6761,9475,15229,0.100,551
2020-02-18T06:35:16,42.805,6.029,CST-1368DR,6761,9475,15229,0.100,551
2020-02-18T06:38:17,42.805,6.029,CST-1368DR,6760,9474,15229,0.100,551
2020-02-18T06:41:19,42.805,6.029,CST-1368DR,6761,9474,15227,0.101,551
2020-02-18T06:44:21,42.805,6.029,CST-1368DR,6760,9475,15230,0.100,551
2020-02-18T06:47:22,42.805,6.029,CST-1368DR,6760,9475,15230,0.100,551
2020-02-18T06:50:24,42.805,6.029,CST-1368DR,6760,9474,15229,0.100,551
2020-02-18T06:53:25,42.805,6.029,CST-1368DR,6760,9475,15231,0.100,550
2020-02-18T06:56:27,42.805,6.029,CST-1368DR,6760,9474,15229,0.100,551
2020-02-18T06:59:29,42.805,6.029,CST-1368DR,6760,9475,15230,0.100,551
2020-02-18T07:02:30,42.805,6.029,CST-1368DR,6760,9475,15230,0.100,551
2020-02-18T07:05:32,42.805,6.029,CST-1368DR,6760,9475,15231,0.100,551
2020-02-18T07:08:34,42.805,6.029,CST-1368DR,6760,9475,15230,0.100,551
2020-02-18T07:11:35,42.805,6.029,CST-1368DR,6760,9475,15231,0.100,551
2020-02-18T07:14:37,42.805,6.029,CST-1368DR,6760,9475,15230,0.100,551
2020-02-18T07:17:38,42.805,6.029,CST-1368DR,6760,9474,15230,0.100,551
2020-02-18T07:20:40,42.805,6.029,CST-1368DR,6760,9475,15230,0.100,551
2020-02-18T07:23:42,42.805,6.029,CST-1368DR,6760,9474,15230,0.100,551
2020-02-18T07:26:43,42.805,6.029,CST-1368DR,6760,9472,15226,0.101,551
2020-02-18T07:29:45,42.805,6.029,CST-1368DR,6760,9475,15230,0.100,551
2020-02-18T07:32:47,42.805,6.029,CST-1368DR,6760,9474,15228,0.101,550
2020-02-18T07:35:48,42.805,6.029,CST-1368DR,6760,9474,15229,0.100,551
2020-02-18T07:38:50,42.805,6.029,CST-1368DR,6760,9474,15229,0.100,551
2020-02-18T07:41:52,42.805,6.029,CST-1368DR,6760,9474,15230,0.100,551
2020-02-18T07:44:53,42.805,6.029,CST-1368DR,6760,9474,15230,0.100,551
2020-02-18T07:47:55,42.805,6.029,CST-1368DR,6760,9472,15225,0.101,550
2020-02-18T07:50:57,42.805,6.029,CST-1368DR,6760,9475,15231,0.100,551
2020-02-18T07:53:58,42.805,6.029,CST-1368DR,6760,9473,15227,0.101,551
2020-02-18T07:57:00,42.805,6.029,CST-1368DR,6760,9475,15230,0.100,551
2020-02-18T08:00:01,42.805,6.029,CST-1368DR,6760,9474,15229,0.100,551
2020-02-18T08:03:03,42.805,6.029,CST-1368DR,6760,9476,15232,0.100,551
2020-02-18T08:06:05,42.805,6.029,CST-1368DR,6760,9473,15227,0.101,551
2020-02-18T08:09:06,42.805,6.029,CST-1368DR,6760,9474,15228,0.101,551
2020-02-18T08:12:08,42.805,6.029,CST-1368DR,6760,9474,15229,0.100,551
2020-02-18T08:15:10,42.805,6.029,CST-1368DR,6760,9471,15225,0.101,551
2020-02-18T08:18:11,42.805,6.029,CST-1368DR,6760,9474,15230,0.100,551
2020-02-18T08:21:13,42.805,6.029,CST-1368DR,6760,9474,15228,0.101,551
2020-02-18T08:24:14,42.805,6.029,CST-1368DR,6760,9473,15227,0.101,551
2020-02-18T08:27:16,42.805,6.029,CST-1368DR,6760,9475,15230,0.100,551
2020-02-18T08:30:18,42.805,6.029,CST-1368DR,6760,9475,15230,0.100,551
2020-02-18T08:33:19,42.805,6.029,CST-1368DR,6760,9474,15229,0.100,551
2020-02-18T08:36:21,42.805,6.029,CST-1368DR,6760,9474,15229,0.100,551
2020-02-18T08:39:23,42.805,6.029,CST-1368DR,6760,9472,15226,0.101,551
2020-02-18T08:42:24,42.805,6.029,CST-1368DR,6760,9475,15230,0.100,551
2020-02-18T08:45:26,42.805,6.029,CST-1368DR,6760,9474,15230,0.100,551
2020-02-18T08:48:28,42.805,6.029,CST-1368DR,6760,9471,15225,0.101,551
2020-02-18T08:51:29,42.805,6.029,CST-1368DR,6760,9473,15228,0.101,551
2020-02-18T08:54:31,42.805,6.029,CST-1368DR,6760,9474,15230,0.100,551
2020-02-18T08:57:33,42.805,6.029,CST-1368DR,6760,9469,15222,0.102,551
2020-02-18T09:00:34,42.805,6.029,CST-1368DR,6760,9474,15230,0.100,551
2020-02-18T09:03:36,42.805,6.029,CST-1368DR,6760,9474,15229,0.100,551
2020-02-18T09:06:38,42.805,6.029,CST-1368DR,6760,9475,15230,0.100,551
2020-02-18T09:09:39,42.805,6.029,CST-1368DR,6760,9474,15229,0.100,551
2020-02-18T09:12:41,42.805,6.029,CST-1368DR,6760,9474,15229,0.100,551
2020-02-18T09:15:42,42.805,6.029,CST-1368DR,6760,9474,15229,0.100,551
2020-02-18T09:18:44,42.805,6.029,CST-1368DR,6760,9474,15229,0.100,551
2020-02-18T09:21:46,42.805,6.029,CST-1368DR,6760,9474,15229,0.100,551
2020-02-18T09:24:47,42.805,6.029,CST-1368DR,6760,9474,15229,0.100,551
2020-02-18T09:27:49,42.805,6.029,CST-1368DR,6760,9475,15230,0.100,551
2020-02-18T09:30:51,42.805,6.029,CST-1368DR,6760,9474,15229,0.100,551
2020-02-18T09:33:52,42.805,6.029,CST-1368DR,6760,9471,15225,0.101,551
2020-02-18T09:36:54,42.805,6.029,CST-1368DR,6760,9473,15227,0.101,551
2020-02-18T09:39:56,42.805,6.029,CST-1368DR,6760,9474,15229,0.100,551
2020-02-18T09:42:57,42.805,6.029,CST-1368DR,6760,9473,15228,0.101,550
2020-02-18T09:45:59,42.805,6.029,CST-1368DR,6760,9475,15230,0.100,551
2020-02-18T09:49:00,42.805,6.029,CST-1368DR,6760,9474,15229,0.100,551
2020-02-18T09:52:02,42.805,6.029,CST-1368DR,6760,9475,15231,0.100,551
2020-02-18T09:55:04,42.805,6.029,CST-1368DR,6760,9473,15228,0.101,551
2020-02-18T09:58:05,42.805,6.029,CST-1368DR,6760,9475,15230,0.100,551
2020-02-18T10:01:07,42.805,6.029,CST-1368DR,6760,9475,15230,0.100,551
2020-02-18T10:04:08,42.805,6.029,CST-1368DR,6760,9475,15230,0.100,551
2020-02-18T10:07:10,42.805,6.029,CST-1368DR,6760,9475,15230,0.100,551
2020-02-18T10:10:12,42.805,6.029,CST-1368DR,6760,9474,15230,0.100,551
2020-02-18T10:13:13,42.805,6.029,CST-1368DR,6760,9474,15230,0.100,551
2020-02-18T10:16:15,42.805,6.029,CST-1368DR,6760,9476,15232,0.100,551
2020-02-18T10:19:17,42.805,6.029,CST-1368DR,6760,9474,15230,0.100,551
2020-02-18T10:22:19,42.805,6.029,CST-1368DR,6760,9475,15230,0.100,551
2020-02-18T10:25:20,42.805,6.029,CST-1368DR,6760,9475,15231,0.100,551
2020-02-18T10:28:22,42.805,6.029,CST-1368DR,6760,9475,15230,0.100,551
2020-02-18T10:31:24,42.805,6.029,CST-1368DR,6760,9475,15230,0.100,551
2020-02-18T10:34:25,42.805,6.029,CST-1368DR,6760,9476,15232,0.100,550
2020-02-18T10:37:27,42.805,6.029,CST-1368DR,6760,9476,15232,0.100,551
2020-02-18T10:40:29,42.805,6.029,CST-1368DR,6760,9476,15232,0.100,551
2020-02-18T10:43:31,42.805,6.029,CST-1368DR,6760,9474,15229,0.100,551
2020-02-18T10:46:32,42.805,6.029,CST-1368DR,6759,9472,15228,0.101,550
2020-02-18T10:49:34,42.805,6.029,CST-1368DR,6760,9476,15232,0.100,551
2020-02-18T10:52:35,42.805,6.029,CST-1368DR,6760,9475,15231,0.100,551
2020-02-18T10:55:37,42.805,6.029,CST-1368DR,6760,9474,15230,0.100,551
2020-02-18T10:58:39,42.805,6.029,CST-1368DR,6760,9475,15230,0.100,551
2020-02-18T11:01:40,42.805,6.029,CST-1368DR,6760,9476,15232,0.100,551
2020-02-18T11:04:42,42.805,6.029,CST-1368DR,6760,9475,15230,0.100,551
2020-02-18T11:07:44,42.805,6.029,CST-1368DR,6760,9474,15229,0.100,551
2020-02-18T11:10:45,42.805,6.029,CST-1368DR,6760,9475,15230,0.100,551
2020-02-18T11:13:47,42.805,6.029,CST-1368DR,6760,9475,15230,0.100,551
2020-02-18T11:16:49,42.805,6.029,CST-1368DR,6759,9475,15233,0.099,551
2020-02-18T11:19:50,42.805,6.029,CST-1368DR,6760,9474,15229,0.100,551
2020-02-18T11:22:52,42.805,6.029,CST-1368DR,6760,9474,15229,0.100,551
2020-02-18T11:25:53,42.805,6.029,CST-1368DR,6759,9475,15232,0.100,551
2020-02-18T11:28:55,42.805,6.029,CST-1368DR,6759,9475,15232,0.100,551
2020-02-18T11:31:57,42.805,6.029,CST-1368DR,6759,9475,15232,0.100,551
2020-02-18T11:34:58,42.805,6.029,CST-1368DR,6759,9474,15231,0.100,551
2020-02-18T11:38:00,42.805,6.029,CST-1368DR,6759,9474,15230,0.100,551
2020-02-18T11:41:02,42.805,6.029,CST-1368DR,6759,9473,15230,0.100,551
2020-02-18T11:44:03,42.805,6.029,CST-1368DR,6759,9474,15231,0.100,551
2020-02-18T11:47:05,42.805,6.029,CST-1368DR,6759,9473,15229,0.100,551
2020-02-18T11:50:06,42.805,6.029,CST-1368DR,6759,9473,15229,0.100,551
2020-02-18T11:53:08,42.805,6.029,CST-1368DR,6759,9474,15230,0.100,551
2020-02-18T11:56:10,42.805,6.029,CST-1368DR,6759,9474,15231,0.100,551
2020-02-18T11:59:12,42.805,6.029,CST-1368DR,6759,9474,15231,0.100,551
2020-02-18T12:02:13,42.805,6.029,CST-1368DR,6759,9474,15231,0.100,550
2020-02-18T12:05:15,42.805,6.029,CST-1368DR,6759,9473,15229,0.100,551
2020-02-18T12:08:16,42.805,6.029,CST-1368DR,6759,9474,15230,0.100,551
2020-02-18T12:11:18,42.805,6.029,CST-1368DR,6759,9474,15230,0.100,551
2020-02-18T12:14:20,42.805,6.029,CST-1368DR,6759,9473,15229,0.100,551
2020-02-18T12:17:21,42.805,6.029,CST-1368DR,6759,9472,15228,0.101,551
2020-02-18T12:20:23,42.805,6.029,CST-1368DR,6759,9473,15230,0.100,551
2020-02-18T12:23:25,42.805,6.029,CST-1368DR,6759,9473,15229,0.100,550
2020-02-18T12:26:26,42.805,6.029,CST-1368DR,6759,9473,15229,0.100,551
2020-02-18T12:29:28,42.805,6.029,CST-1368DR,6759,9473,15230,0.100,551
2020-02-18T12:32:30,42.805,6.029,CST-1368DR,6759,9473,15230,0.100,550
2020-02-18T12:35:31,42.805,6.029,CST-1368DR,6759,9473,15230,0.100,551
2020-02-18T12:38:33,42.805,6.029,CST-1368DR,6759,9474,15230,0.100,551
2020-02-18T12:41:34,42.805,6.029,CST-1368DR,6759,9474,15231,0.100,551
2020-02-18T12:44:36,42.805,6.029,CST-1368DR,6759,9472,15228,0.101,551
2020-02-18T12:47:38,42.805,6.029,CST-1368DR,6759,9474,15231,0.100,551
2020-02-18T12:50:39,42.805,6.029,CST-1368DR,6759,9473,15230,0.100,551
2020-02-18T12:53:41,42.805,6.029,CST-1368DR,6759,9471,15227,0.101,551
2020-02-18T12:56:43,42.805,6.029,CST-1368DR,6759,9473,15230,0.100,551
2020-02-18T12:59:44,42.805,6.029,CST-1368DR,6759,9472,15228,0.101,551
2020-02-18T13:02:46,42.805,6.029,CST-1368DR,6759,9473,15229,0.100,551
2020-02-18T13:05:47,42.805,6.029,CST-1368DR,6759,9473,15229,0.100,551
2020-02-18T13:08:49,42.805,6.029,CST-1368DR,6759,9473,15229,0.100,551
2020-02-18T13:11:51,42.805,6.029,CST-1368DR,6759,9472,15228,0.101,551
2020-02-18T13:14:52,42.805,6.029,CST-1368DR,6759,9472,15228,0.101,551
2020-02-18T13:17:54,42.805,6.029,CST-1368DR,6759,9472,15228,0.101,551
2020-02-18T13:20:56,42.805,6.029,CST-1368DR,6759,9471,15227,0.101,551
2020-02-18T13:23:57,42.805,6.029,CST-1368DR,6759,9473,15229,0.100,551
2020-02-18T13:26:59,42.805,6.029,CST-1368DR,6759,9473,15229,0.100,551
2020-02-18T13:30:00,42.805,6.029,CST-1368DR,6759,9472,15228,0.101,551
2020-02-18T13:33:02,42.805,6.029,CST-1368DR,6759,9472,15227,0.101,551
2020-02-18T13:36:04,42.805,6.029,CST-1368DR,6759,9471,15226,0.101,551
2020-02-18T13:39:05,42.805,6.029,CST-1368DR,6759,9472,15228,0.101,551
2020-02-18T13:42:07,42.805,6.029,CST-1368DR,6759,9473,15229,0.100,551
2020-02-18T13:45:09,42.805,6.029,CST-1368DR,6759,9473,15229,0.100,551
2020-02-18T13:48:10,42.805,6.029,CST-1368DR,6759,9472,15228,0.101,551
2020-02-18T13:51:12,42.805,6.029,CST-1368DR,6759,9468,15222,0.102,551
2020-02-18T13:54:13,42.805,6.029,CST-1368DR,6759,9472,15228,0.101,551
2020-02-18T13:57:15,42.805,6.029,CST-1368DR,6759,9471,15226,0.101,551
2020-02-18T14:00:17,42.805,6.029,CST-1368DR,6759,9471,15227,0.101,551
2020-02-18T14:03:18,42.805,6.029,CST-1368DR,6759,9472,15228,0.101,551
2020-02-18T14:06:20,42.805,6.029,CST-1368DR,6759,9472,15228,0.101,551
2020-02-18T14:09:22,42.805,6.029,CST-1368DR,6759,9473,15229,0.100,551
2020-02-18T14:12:23,42.805,6.029,CST-1368DR,6759,9472,15227,0.101,551
2020-02-18T14:15:25,42.805,6.029,CST-1368DR,6759,9472,15228,0.101,551
2020-02-18T14:18:27,42.805,6.029,CST-1368DR,6759,9470,15225,0.101,551
2020-02-18T14:21:28,42.805,6.029,CST-1368DR,6759,9471,15226,0.101,551
2020-02-18T14:24:30,42.805,6.029,CST-1368DR,6759,9472,15228,0.101,551
2020-02-18T14:27:32,42.805,6.029,CST-1368DR,6759,9472,15228,0.101,551
2020-02-18T14:30:33,42.805,6.029,CST-1368DR,6759,9471,15227,0.101,551
2020-02-18T14:33:35,42.805,6.029,CST-1368DR,6759,9472,15227,0.101,551
2020-02-18T14:36:37,42.805,6.029,CST-1368DR,6759,9471,15227,0.101,551
2020-02-18T14:39:39,42.805,6.029,CST-1368DR,6759,9471,15226,0.101,551
2020-02-18T14:42:41,42.805,6.029,CST-1368DR,6759,9471,15226,0.101,551
2020-02-18T14:45:42,42.805,6.029,CST-1368DR,6759,9472,15228,0.101,551
2020-02-18T14:48:44,42.805,6.029,CST-1368DR,6759,9472,15227,0.101,551
2020-02-18T14:51:46,42.805,6.029,CST-1368DR,6759,9472,15228,0.101,551
2020-02-18T14:54:47,42.805,6.029,CST-1368DR,6759,9472,15228,0.101,551
2020-02-18T14:57:49,42.805,6.029,CST-1368DR,6759,9470,15225,0.101,551
2020-02-18T15:00:51,42.805,6.029,CST-1368DR,6759,9471,15227,0.101,551
2020-02-18T15:03:52,42.805,6.029,CST-1368DR,6759,9471,15226,0.101,551
2020-02-18T15:06:54,42.805,6.029,CST-1368DR,6759,9471,15226,0.101,551
2020-02-18T15:09:55,42.805,6.029,CST-1368DR,6759,9472,15228,0.101,551
2020-02-18T15:12:57,42.805,6.029,CST-1368DR,6759,9472,15228,0.101,551
2020-02-18T15:15:59,42.805,6.029,CST-1368DR,6759,9472,15227,0.101,551
2020-02-18T15:19:00,42.805,6.029,CST-1368DR,6759,9471,15226,0.101,551
2020-02-18T15:22:02,42.805,6.029,CST-1368DR,6759,9472,15227,0.101,551
2020-02-18T15:25:04,42.805,6.029,CST-1368DR,6759,9472,15227,0.101,551
2020-02-18T15:28:05,42.805,6.029,CST-1368DR,6759,9472,15228,0.101,551
2020-02-18T15:31:07,42.805,6.029,CST-1368DR,6759,9471,15227,0.101,551
2020-02-18T15:34:09,42.805,6.029,CST-1368DR,6759,9470,15224,0.102,551
2020-02-18T15:37:10,42.805,6.029,CST-1368DR,6759,9472,15228,0.101,550
2020-02-18T15:40:12,42.805,6.029,CST-1368DR,6759,9472,15228,0.101,551
2020-02-18T15:43:14,42.805,6.029,CST-1368DR,6759,9472,15228,0.101,551
2020-02-18T15:46:15,42.805,6.029,CST-1368DR,6759,9471,15226,0.101,551
2020-02-18T15:49:17,42.805,6.029,CST-1368DR,6759,9472,15227,0.101,551
2020-02-18T15:52:19,42.805,6.029,CST-1368DR,6759,9472,15228,0.101,551
2020-02-18T15:55:21,42.805,6.029,CST-1368DR,6759,9470,15225,0.101,551
2020-02-18T15:58:22,42.805,6.029,CST-1368DR,6759,9471,15227,0.101,551
2020-02-18T16:01:24,42.805,6.029,CST-1368DR,6759,9469,15223,0.102,551
2020-02-18T16:04:25,42.805,6.029,CST-1368DR,6758,9468,15224,0.102,551
2020-02-18T16:07:27,42.805,6.029,CST-1368DR,6758,9471,15229,0.100,551
2020-02-18T16:10:29,42.805,6.029,CST-1368DR,6758,9470,15227,0.101,551
2020-02-18T16:13:30,42.805,6.029,CST-1368DR,6758,9469,15226,0.101,551
2020-02-18T16:16:32,42.805,6.029,CST-1368DR,6758,9470,15227,0.101,551
2020-02-18T16:19:34,42.805,6.029,CST-1368DR,6758,9471,15229,0.100,551
2020-02-18T16:22:35,42.805,6.029,CST-1368DR,6758,9472,15230,0.100,551
2020-02-18T16:25:37,42.805,6.029,CST-1368DR,6758,9472,15229,0.100,551
2020-02-18T16:28:39,42.805,6.029,CST-1368DR,6758,9470,15227,0.101,551
2020-02-18T16:31:40,42.805,6.029,CST-1368DR,6758,9471,15228,0.101,551
2020-02-18T16:34:42,42.805,6.029,CST-1368DR,6758,9470,15227,0.101,551
2020-02-18T16:37:44,42.805,6.029,CST-1368DR,6758,9472,15229,0.100,551
2020-02-18T16:40:45,42.805,6.029,CST-1368DR,6758,9471,15229,0.100,551
2020-02-18T16:43:47,42.805,6.029,CST-1368DR,6758,9471,15229,0.100,551
2020-02-18T16:46:48,42.805,6.029,CST-1368DR,6758,9471,15229,0.100,550
2020-02-18T16:49:50,42.805,6.029,CST-1368DR,6758,9471,15228,0.101,551
2020-02-18T16:52:52,42.805,6.029,CST-1368DR,6758,9471,15229,0.100,551